EUTELSAT 7C

Last updated on Wed Nov 05 2025 00:02:49 GMT+0000 (Coordinated Universal Time)

1 44334U 19034B 25308.17961375 .00000061 00000+0 00000+0 0 9997 2 44334 0.0679 185.0031 0003318 21.3930 268.9636 1.00270578 4579
UTC large
Height (km)
Speed (km/s)
/
Latitude / Longitude
Inclination (degrees)
Orbital Period (minutes)
Azimuth
Elevation
Range (km)
Doppler Factor

Next 0 passes for location: London (51.5072 / 0.1276)

Sorry there are no passes over London.